This demonstration page uses our WeatherBlox Daily Observations layout. Learn more.

Left ArrowRight Arrow

Hourly Observations for June 21, 2017

Temp ( °F °C ) Dew Point ( °F °C ) Humidity (%) Winds ( mph kmh ) Pressure ( in mb ) Visibility ( mi km ) Precip ( " mm )
12:15 am 00:15 Clear 69 20.8 64 18 84 84 ESE 7 11 29.83 1010 10 16.0934 0 0
12:35 am 00:35 Clear 69 20.8 64 18 84 84 SE 7 11 29.83 1010 10 16.0934 0 0
12:55 am 00:55 Clear 69 20.7 64 18 85 85 SE 6 9 29.83 1010 10 16.0934 0 0
1:15 am 01:15 Clear 69 20.8 64 18 84 84 SSE 6 9 29.83 1010 10 16.0934 0 0
1:35 am 01:35 Clear 69 20.5 64 18 86 86 SSE 6 9 29.8 1009 10 16.0934 0 0
1:55 am 01:55 Clear 69 20.5 64 18 86 86 S 5 7 29.8 1009 10 16.0934 0 0
2:15 am 02:15 Clear 69 20.8 64 18 84 84 S 6 9 29.8 1009 10 16.0934 0 0
2:35 am 02:35 Clear 69 20.7 64 17.8 84 84 S 7 11 29.8 1009 10 16.0934 0 0
2:55 am 02:55 Clear 70 21.1 64 17.5 80 80 SSW 10 17 29.83 1010 10 16.0934 0 0
3:15 am 03:15 Clear 69 20.8 64 17.5 82 82 S 9 15 29.8 1009 10 16.0934 0 0
3:35 am 03:35 Clear 69 20.8 63 17.4 81 81 S 16 26 29.77 1008 10 16.0934 0 0
3:55 am 03:55 Clear 70 21.3 63 17 77 77 S 16 26 29.77 1008 10 16.0934 0 0
4:15 am 04:15 Clear 70 21.2 62 16.7 76 76 S 13 20 29.74 1007 10 16.0934 0 0
4:35 am 04:35 Clear 70 20.9 62 16.7 77 77 S 12 19 29.74 1007 10 16.0934 0 0
4:55 am 04:55 Clear 69 20.8 62 16.6 77 77 S 15 24 29.74 1007 10 16.0934 0 0
5:15 am 05:15 Clear 70 21.2 62 16.6 75 75 S 14 22 29.68 1005 10 16.0934 0 0
5:35 am 05:35 Clear 70 21.3 62 16.6 75 75 S 13 20 29.68 1005 10 16.0934 0 0
5:55 am 05:55 Clear 70 21 62 16.5 76 76 S 12 19 29.74 1007 10 16.0934 0 0
6:15 am 06:15 Sunny 69 20.6 62 16.6 78 78 S 10 17 29.71 1006 10 16.0934 0 0
6:35 am 06:35 Sunny 69 20.5 62 16.6 78 78 S 12 19 29.71 1006 10 16.0934 0 0
6:55 am 06:55 Sunny 69 20.8 62 16.5 77 77 S 10 17 29.74 1007 10 16.0934 0 0
7:15 am 07:15 Sunny 70 20.9 61 16.3 75 75 S 8 13 29.74 1007 10 16.0934 0 0
7:35 am 07:35 Sunny 71 21.4 61 16.1 72 72 S 8 13 29.71 1006 10 16.0934 0 0
7:55 am 07:55 Sunny 72 22.1 62 16.4 70 70 S 12 19 29.68 1005 10 16.0934 0 0
8:15 am 08:15 Sunny 73 23 62 16.4 66 66 S 12 19 29.68 1005 10 16.0934 0 0
8:35 am 08:35 Sunny 74 23.2 62 16.5 66 66 S 12 19 29.68 1005 10 16.0934 0 0
8:55 am 08:55 Sunny 74 23.6 62 16.6 65 65 S 14 22 29.71 1006 10 16.0934 0 0
9:15 am 09:15 Sunny 77 24.9 63 17 62 62 SSW 12 19 29.71 1006 10 16.0934 0 0
9:35 am 09:35 Sunny 79 25.9 63 17.1 58 58 SSW 14 22 29.68 1005 10 16.0934 0 0
9:55 am 09:55 Sunny 80 26.8 63 17.4 56 56 SW 13 20 29.68 1005 10 16.0934 0 0
10:15 am 10:15 Sunny 81 27.4 64 17.6 55 55 SW 14 22 29.68 1005 10 16.0934 0 0
10:35 am 10:35 Sunny 83 28.2 64 17.9 54 54 SSW 12 19 29.68 1005 10 16.0934 0 0
10:55 am 10:55 Sunny 84 28.9 64 17.8 51 51 S 8 13 29.65 1004 10 16.0934 0 0
11:15 am 11:15 Sunny 85 29.5 63 17.4 48 48 S 13 20 29.62 1003 10 16.0934 0 0
11:35 am 11:35 Sunny 87 30.3 64 17.6 47 47 S 13 20 29.62 1003 10 16.0934 0 0
11:55 am 11:55 Sunny 87 30.6 64 17.9 47 47 S 15 24 29.62 1003 10 16.0934 0 0
12:15 pm 12:15 Sunny 89 31.4 64 17.5 43 43 S 13 20 29.62 1003 10 16.0934 0 0
12:35 pm 12:35 Sunny 90 32.1 62 16.6 39 39 S 10 17 29.62 1003 10 16.0934 0 0
12:55 pm 12:55 Sunny 90 32.1 61 16.3 39 39 S 13 20 29.62 1003 10 16.0934 0 0
1:15 pm 13:15 Sunny 92 33.2 60 15.8 35 35 SSW 12 19 29.59 1002 10 16.0934 0 0
1:35 pm 13:35 Sunny 91 32.9 62 16.7 38 38 S 13 20 29.59 1002 10 16.0934 0 0
1:55 pm 13:55 Sunny 91 32.9 62 16.8 38 38 S 15 24 29.59 1002 10 16.0934 0 0
2:15 pm 14:15 Sunny 93 33.7 63 17.4 38 38 S 16 26 29.59 1002 10 16.0934 0 0
2:35 pm 14:35 Sunny 93 33.9 65 18.3 40 40 SSW 14 22 29.59 1002 10 16.0934 0 0
2:55 pm 14:55 Sunny 94 34.5 64 17.9 37 37 S 14 22 29.56 1001 10 16.0934 0 0
3:15 pm 15:15 Sunny 95 34.8 65 18.1 37 37 SSW 18 30 29.56 1001 10 16.0934 0 0
3:35 pm 15:35 Sunny 94 34.6 65 18.2 38 38 S 10 17 29.56 1001 10 16.0934 0 0
3:55 pm 15:55 Sunny 94 34.6 64 17.7 37 37 S 13 20 29.56 1001 10 16.0934 0 0
4:15 pm 16:15 Sunny 95 35 63 17.4 35 35 S 15 24 29.56 1001 10 16.0934 0 0
4:35 pm 16:35 Sunny 95 35.1 64 17.7 36 36 S 10 17 29.53 1000 10 16.0934 0 0
4:55 pm 16:55 Sunny 96 35.8 64 17.5 34 34 S 10 17 29.5 999 10 16.0934 0 0
5:15 pm 17:15 Sunny 97 36 63 17 32 32 S 13 20 29.5 999 10 16.0934 0 0
5:35 pm 17:35 Sunny 97 35.9 63 17.3 33 33 S 15 24 29.5 999 10 16.0934 0 0
5:55 pm 17:55 Sunny 96 35.7 63 17.1 33 33 S 13 20 29.5 999 10 16.0934 0 0
6:15 pm 18:15 Sunny 94 34.6 63 17 35 35 S 9 15 29.53 1000 10 16.0934 0 0
6:35 pm 18:35 Sunny 92 33.3 65 18.4 41 41 SSE 9 15 29.5 999 10 16.0934 0 0
6:55 pm 18:55 Sunny 91 32.7 65 18.2 42 42 SSE 6 9 29.5 999 10 16.0934 0 0
7:15 pm 19:15 Sunny 90 32.2 65 18.4 44 44 SE 8 13 29.5 999 10 16.0934 0 0
7:35 pm 19:35 Sunny 89 31.8 65 18.6 45 45 SSE 7 11 29.5 999 10 16.0934 0 0
7:55 pm 19:55 Mostly Cloudy 88 31.2 66 19 48 48 ESE 3 6 29.53 1000 10 16.0934 0 0
8:15 pm 20:15 Cloudy with Heavy Thunderstorms 82 27.8 69 20.5 65 65 E 9 15 29.56 1001 2.5 4.02335 0.13 3.302
8:35 pm 20:35 Partly Cloudy with Light Rain 84 28.8 66 19 55 55 SSE 20 31 29.53 1000 10 16.0934 0.18 4.572
8:55 pm 20:55 Sunny with Nearby Thunderstorms 84 29 64 18 51 51 SSE 15 24 29.53 1000 10 16.0934 0.18 4.572
9:15 pm 21:15 Clear with Nearby Thunderstorms 86 30.1 67 19.6 53 53 SSE 21 33 29.56 1001 10 16.0934 0 0
9:35 pm 21:35 Clear with Light Rain 83 28.2 64 18 54 54 S 18 30 29.56 1001 10 16.0934 0 0
9:55 pm 21:55 Clear with Drizzle 80 26.6 68 20.1 68 68 S 22 35 29.59 1002 10 16.0934 0 0
10:15 pm 22:15 Clear 79 26 69 20.4 71 71 S 17 28 29.62 1003 10 16.0934 0 0
10:35 pm 22:35 Clear 77 25 67 19.6 72 72 S 22 35 29.62 1003 10 16.0934 0 0
10:55 pm 22:55 Mostly Cloudy 76 24.4 61 16.1 60 60 S 22 35 29.62 1003 10 16.0934 0 0
11:15 pm 23:15 Mostly Cloudy 76 24.4 60 15.8 59 59 S 18 30 29.62 1003 10 16.0934 0 0
11:35 pm 23:35 Partly Cloudy 76 24.5 62 16.7 62 62 S 23 37 29.62 1003 10 16.0934 0 0
11:55 pm 23:55 Partly Cloudy 75 24 62 16.7 64 64 S 17 28 29.65 1004 10 16.0934 0 0

Powered by AerisWeather